Tracking 27371 objects as of 8-Jun-2023
HD Live streaming from Space Station
objects crossing your sky now

STARLINK-5117

Track STARLINK-5117 now!
10-day predictions
STARLINK-5117 is classified as:


NORAD ID: 54172
Int'l Code: 2022-141R
Perigee: 546.2 km
Apogee: 547.5 km
Inclination: 53.2 °
Period: 95.4 minutes
Semi major axis: 6917 km
RCS: Unknown
Launch date: October 28, 2022
Source: United States (US)
Launch site: AIR FORCE WESTERN TEST RANGE (AFWTR)
Your satellite tracking list
Your tracking list is empty




NASA's NSSDC Master Catalog

Two Line Element Set (TLE):
1 54172U 22141R   23158.80537247  .00000288  00000-0  36167-4 0  9999
2 54172  53.2152 199.6828 0000954  86.1400 273.9702 15.08837997 34003
Source of the keplerian elements: AFSPC